sat.trackr.live / text

‹ back to catalog

2023-091H

NORAD 57173 · 2023-091H

PAYLOAD ACTIVE UNKNOWN

§ Identity

Operator
Country
CIS
Launch date
2023-06-27
Launch site
VOSTO
Launch vehicle
Mass (kg)
RCS (m²)

External: N2YO · Heavens-Above · Gunter

§ Orbital elements

Epoch: 2026-09-21T22:31:55.747488Z

Period
94.09 min
Inclination
97.4953°
Eccentricity
0.0010609
Mean motion
15.30437234 rev/d
Perigee alt
467.2 km
Apogee alt
481.8 km
Semi-major
6,852.6 km
B*
2.7163e-4
RAAN
328.9887°
Arg perigee
127.0719°
Mean anomaly
233.1493°
Rev number
17,909

§ Raw data

2023-091H1 57173U 23091H   26264.93883967  .00007930  00000+0  27163-3 0  99912 57173  97.4953 328.9887 0010609 127.0719 233.1493 15.30437234179093

JSON: /api/v1/satellites/57173 · /tle

For live sub-satellite position, see the globe view (requires WebGL).

§ Visibility from observer

Set your observer location to see the next 7 days of passes ≥ 10°. The values pass through the URL so the page stays shareable.

No JS? Fill the form by hand. The geolocation button needs JavaScript.

§ Radio — SatNOGS DB

ModeDescriptionDownlinkUplink
FSK Mode U - FSK1k2 AX.25 TLM 437.400 MHz
CW SamSat-ION Beacon 437.402 MHz

2 transmitters · refreshed weekly from db.satnogs.org